sat.trackr.live / text

‹ back to catalog

STARLINK-37532

NORAD 69468 · 2026-127AB

PAYLOAD ACTIVE UNKNOWN

§ Identity

Operator
Country
US
Launch date
2026-06-08
Launch site
AFETR
Launch vehicle
Mass (kg)
RCS (m²)

Purposes: comms

External: N2YO · Heavens-Above · Gunter

§ Orbital elements

Epoch: 2026-09-20T02:50:51.746208Z

Period
93.79 min
Inclination
53.1588°
Eccentricity
0.0001066
Mean motion
15.35420153 rev/d
Perigee alt
458.9 km
Apogee alt
460.4 km
Semi-major
6,837.8 km
B*
7.2528e-4
RAAN
167.4777°
Arg perigee
87.6567°
Mean anomaly
272.4558°
Rev number
1,613

§ Raw data

STARLINK-375321 69468U 26127AB  26263.11865447  .00025019  00000+0  72528-3 0  99992 69468  53.1588 167.4777 0001066  87.6567 272.4558 15.35420153 16139

JSON: /api/v1/satellites/69468 · /tle

For live sub-satellite position, see the globe view (requires WebGL).

§ Visibility from observer

Set your observer location to see the next 7 days of passes ≥ 10°. The values pass through the URL so the page stays shareable.

No JS? Fill the form by hand. The geolocation button needs JavaScript.